EST,Max TemperatureF,Mean TemperatureF,Min TemperatureF,Max Dew PointF,MeanDew PointF,Min DewpointF,Max Humidity, Mean Humidity, Min Humidity, Max Sea Level PressureIn, Mean Sea Level PressureIn, Min Sea Level PressureIn, Max VisibilityMiles, Mean VisibilityMiles, Min VisibilityMiles, Max Wind SpeedMPH, Mean Wind SpeedMPH, Max Gust SpeedMPH,PrecipitationIn, CloudCover, Events, WindDirDegrees
2013-1-1,55,52,48,52,48,42,93,80,66,30.14,30.05,29.93,10,8,4,9,3,13,0.01,7,Rain,222
2013-1-2,55,51,47,52,49,42,100,86,71,30.19,30.00,29.89,10,6,2,16,7,21,0.11,8,Rain,31
2013-1-3,47,40,33,42,39,32,100,91,82,30.29,30.20,30.13,10,5,0,13,4,17,0.06,6,Fog-Rain,60
2013-1-4,53,42,30,36,31,27,100,69,38,30.36,30.29,30.24,10,4,0,10,3,14,0.00,0,Fog,297
2013-1-5,52,39,25,36,26,21,84,57,30,30.42,30.34,30.28,10,10,10,10,3,13,0.00,0,,18
2013-1-6,50,44,38,45,41,35,100,83,65,30.26,30.17,30.07,10,7,0,8,3,10,0.05,5,Fog-Rain,234
2013-1-7,56,45,34,41,34,30,100,69,38,30.42,30.33,30.20,10,10,2,14,6,20,0.00,0,,28
2013-1-8,62,49,35,45,39,35,86,67,47,30.43,30.38,30.34,10,10,10,13,5,16,0.00,6,,34
2013-1-9,72,58,44,54,49,43,93,70,47,30.42,30.38,30.35,10,9,7,9,3,13,0.00,2,,12
2013-1-10,74,63,52,53,51,49,93,69,44,30.48,30.42,30.38,10,10,6,15,6,20,0.02,2,Rain,74
2013-1-11,72,62,51,61,53,48,96,82,68,30.38,30.28,30.17,10,6,2,10,5,14,0.15,6,Rain,103
2013-1-12,81,71,60,62,59,57,97,71,45,30.19,30.14,30.10,10,8,4,16,5,20,0.00,0,,223
2013-1-13,78,68,57,62,58,55,100,75,50,30.17,30.12,30.07,10,8,0,13,7,16,0.00,1,Fog,208
2013-1-14,79,69,58,61,59,57,100,77,54,30.18,30.13,30.09,10,9,2,18,8,24,0.00,2,,200
2013-1-15,79,66,53,60,57,52,97,71,45,30.17,30.10,30.03,10,8,2,15,5,20,0.00,1,,188
2013-1-16,80,67,53,62,58,52,93,72,50,30.03,29.98,29.94,10,8,1,21,6,28,0.00,5,,226
2013-1-17,80,61,42,61,51,37,100,74,48,30.10,29.91,29.69,10,6,0,28,10,40,0.73,6,Fog-Rain,282
2013-1-18,53,44,35,39,29,19,92,59,26,30.52,30.38,30.11,10,10,10,18,9,25,T,1,Rain,4
2013-1-19,60,45,29,40,32,25,89,62,35,30.51,30.37,30.20,10,10,8,10,3,12,0.00,0,,88
2013-1-20,67,54,40,40,35,29,89,58,26,30.19,30.11,30.02,10,10,8,15,6,22,0.00,0,,255
2013-1-21,66,50,34,36,32,27,89,58,26,30.07,30.01,29.92,10,10,10,17,7,23,0.00,0,,244
2013-1-22,51,40,28,26,18,12,69,45,21,30.26,30.16,30.01,10,10,10,15,6,23,0.00,0,,315
2013-1-23,48,36,24,29,15,6,75,49,22,30.39,30.27,30.13,10,10,10,10,5,14,0.00,0,,115
2013-1-24,58,43,27,39,24,7,71,49,26,30.51,30.23,30.02,10,10,10,23,12,29,0.00,0,,8
2013-1-25,34,28,22,25,14,6,72,54,36,30.52,30.34,30.16,10,10,9,12,4,15,0.01,5,,54
2013-1-26,52,42,32,31,28,24,82,63,44,30.36,30.22,30.12,10,10,9,13,4,15,0.00,3,,23
2013-1-27,48,38,27,28,26,24,92,67,42,30.56,30.50,30.38,10,7,2,15,7,18,0.00,0,,55
2013-1-28,61,47,32,49,38,27,86,74,61,30.49,30.38,30.28,10,8,2,8,3,10,0.00,6,,98
2013-1-29,77,58,39,61,46,37,100,77,54,30.28,30.23,30.09,10,4,0,15,5,18,0.00,3,Fog,214
2013-1-30,79,70,61,64,61,57,93,72,50,30.09,29.82,29.53,10,9,2,31,17,43,0.14,5,Rain,195
2013-1-31,60,52,43,53,33,18,90,56,22,30.12,29.87,29.65,10,10,5,32,15,45,0.22,3,Rain,257